Regional Weather Roundup
Issued by NWS

Home | Current Version | Previous Version | Text Only | Print | Product List | Glossary Off
Versions: 1 2 3 4 5 6 7 8 9 10 11 12 13 14 15 16 17 18 19 20 21 22 23 24 25 26 27 28 29 30 31 32 33 34 35 36 37 38 39 40 41 42 43 44 45 46 47 48 49

000
ASUS43 KDMX 300907
RWRIA

WEATHER ROUNDUP FOR IOWA
NATIONAL WEATHER SERVICE DES MOINES IA
400 AM CDT SUN AUG 30 2015

NOTE: "FAIR" INDICATES FEW OR NO CLOUDS BELOW 12,000 FEET WITH NO
SIGNIFICANT WEATHER AND/OR OBSTRUCTIONS TO VISIBILITY.

* - THESE STATIONS ARE NOT NWS STATIONS...THUS NOT UNDER NWS
QUALITY CONTROL.  THEY ALSO DO NOT REPORT WEATHER SUCH
AS PRECIPITATION OR FOG.

IAZ001>003-012>014-020>022-031>034-043>046-301000-
   NORTHWEST IOWA

CITY           SKY/WX    TMP DP  RH WIND       PRES   REMARKS
CARROLL *      CLOUDY    61  61 100 SE5       30.04S FOG
CHEROKEE *     CLOUDY    63  63 100 S6        30.04R
DENISON *      CLOUDY    64  63  94 CALM      30.02S
LE MARS *      CLOUDY    64  63  94 S12       30.02S FOG
ORANGE CITY *  CLOUDY    64  63  94 S7        30.02S
SHELDON *      CLOUDY    63  61  94 S8G14     30.01S
SPENCER        CLOUDY    62  59  90 S10       30.03S
STORM LAKE *   CLOUDY    63  61  94 SW9       30.05S
$$

IAZ055>058-069>071-079>083-090>094-301000-
   SOUTHWEST IOWA

CITY           SKY/WX    TMP DP  RH WIND       PRES   REMARKS
ATLANTIC *     CLOUDY    63  63 100 CALM      30.04S
AUDUBON *      CLOUDY    61  59  94 CALM      30.05S
CLARINDA *     FOG       61  61 100 CALM      30.06R VSB 0
COUNCIL BLFS * CLOUDY    61  61 100 S5        30.04R
CRESTON *      FOG       63  63 100 SE5       30.06S VSB 0
HARLAN  *      CLOUDY    64 N/A N/A CALM      30.08R
LAMONI         FOG       64  63  96 CALM      30.04S VSB 1/4
RED OAK *      FOG       63  63 100 CALM      30.05R VSB 0
SHENANDOAH *   FOG       57  57 100 CALM      30.04S VSB 1/4
$$

IAZ047>049-059>061-072>074-084-301000-
   CENTRAL IOWA

CITY           SKY/WX    TMP DP  RH WIND       PRES   REMARKS
AMES           CLEAR     57  57 100 CALM      30.04R
ANKENY *       PTCLDY    55  55 100 CALM      30.03S
CHARITON *     FOG       61  61 100 CALM      30.04S VSB 0
DES MOINES     PTCLDY    62  59  90 CALM      30.03S FOG
GRINNELL*      CLOUDY    63  61  94 E3        30.05R
KNOXVILLE *    FOG       63  61  94 CALM      30.02S VSB 1/2
MARSHALLTOWN   FOG       57  57 100 CALM      30.04R VSB 1/2
PELLA *        FOG       63  63 100 CALM      30.04S VSB 1/4
PERRY *        FOG       59  59 100 CALM      30.04F VSB 1/2
$$

IAZ004>006-015-016-023>025-035-036-301000-
   NORTH CENTRAL IOWA

CITY           SKY/WX    TMP DP  RH WIND       PRES   REMARKS
ALGONA *       CLOUDY    63  61  94 S9        30.04R
CLARION *      CLEAR     55  55 100 S6        30.04S
ESTHERVILLE    CLOUDY    61  60  97 S13       30.02S
FORT DODGE *   CLOUDY    61  57  88 CALM      30.05R
MASON CITY     FOG       56  56 100 S3        30.05S VSB 1/4
FOREST CITY *  FOG       54  54 100 CALM      30.04S VSB 1/2
IOWA FALLS *   FOG       59  59 100 CALM      30.06R VSB 1/2
$$

IAZ007>011-017>019-026>030-037>042-050>054-066-301000-
   NORTHEAST IOWA

CITY           SKY/WX    TMP DP  RH WIND       PRES   REMARKS
CEDAR RAPIDS   CLOUDY    59  59 100 CALM      30.04R FOG
CHARLES CITY * CLEAR     57  57 100 S5        30.05R FOG
CLINTON *      CLEAR     57  55  94 NE3       30.05F
DECORAH *      CLOUDY    59  59 100 CALM      30.04R
DUBUQUE        CLEAR     58  57  97 CALM      30.05S
MONTICELLO *   FOG       57  57 100 CALM      30.04S VSB 0
OELWEIN *      FOG       55  55 100 SE5       30.05  VSB 1/4
WATERLOO       CLEAR     55  54  96 CALM      30.04R
$$

IAZ064-065-067-068-078-301000-
   EAST CENTRAL IOWA

CITY           SKY/WX    TMP DP  RH WIND       PRES   REMARKS
DAVENPORT      FOG       58  57  97 CALM      30.04S VSB 1/4
IOWA CITY      CLEAR     64  63  96 N3        30.04F FOG
MT. PLEASANT * DRZL/FOG  66  63  88 CALM      30.04R VSB 1/4
MUSCATINE *    FOG       64  63  94 CALM      30.03F VSB 0
QUAD CITIES    FOG       60  59  96 CALM      30.03S VSB 1/4
$$

IAZ062-063-075>077-085>089-095>099-301000-
   SOUTHEAST IOWA

CITY           SKY/WX    TMP DP  RH WIND       PRES   REMARKS
BURLINGTON     FOG       67  67 100 NE5       30.03R VSB 1/2
FAIRFIELD *    FOG       66  64  94 E3        30.03F VSB 1/2
FORT MADISON * FOG       66  66 100 NE3       30.04R VSB 1/4
KEOKUK *       FOG       68  68 100 N6        30.02S VSB 1/4
OSKALOOSA *    FOG       63  63 100 CALM      30.04S VSB<1/4
CENTERVILLE *  CLOUDY    64  64 100 CALM      30.05S
OTTUMWA        FOG       65  65 100 NE3       30.02S VSB 1/4
WASHINGTON *     N/A    N/A N/A N/A MISG        N/A
$$

ABBREVIATIONS USED IN REMARKS
   TC - TEMPERATURES IN CELSIUS
  WCI - WIND CHILL INDEX
   HX - HEAT INDEX
  VSB - VISIBILITY
$$




USA.gov is the U.S. government's official web portal to all federal, state and local government web resources and services.